User: anonymous   Login
Location: Unspecified
(0.0000°N, 0.0000°E)
Time: 03:36:59
(UTC+00:00)
Language:

USA 229 DEB - Orbit

View from above orbital plane
View from above orbital plane
View from above satellite
View from above satellite

Ground track
Ground track

The orbit data is extracted from the following two-line orbital elements,

1 37391U 11014B   17147.94368396 0.00000000  00000-0  00000-0 0    01
2 37391  63.4400  67.6964 0069060   3.3932 356.6068 13.40735961    04
Epoch (UTC): 27 May 2017 22:38:54
Eccentricity: 0.0069060
inclination: 63.4400°
perigee height: 1055 km
apogee height: 1158 km
right ascension of ascending node: 67.6964°
argument of perigee: 3.3932°
revolutions per day: 13.40735961
mean anomaly at epoch: 356.6068°
orbit number at epoch: 0

The dashed part of the orbit path shows where the satellite is in the earth's shadow,  

DLR